TimeAKST,TemperatureF,Dew PointF,Humidity,Sea Level PressureIn,VisibilityMPH,Wind Direction,Wind SpeedMPH,Gust SpeedMPH,PrecipitationIn,Events,Conditions,WindDirDegrees,DateUTC
12:53 AM,32.0,26.1,79,29.41,10.0,NNE,15.0,-,N/A,,Overcast,30,2012-12-28 09:53:00
1:53 AM,30.9,24.1,76,29.42,10.0,NNE,15.0,-,N/A,,Partly Cloudy,30,2012-12-28 10:53:00
3:53 AM,30.0,23.0,75,29.45,10.0,NNE,10.4,-,N/A,,Overcast,30,2012-12-28 12:53:00
4:53 AM,30.0,24.1,79,29.45,10.0,NNE,11.5,-,N/A,,Overcast,30,2012-12-28 13:53:00
5:53 AM,28.9,23.0,78,29.47,10.0,NNE,6.9,-,N/A,,Overcast,20,2012-12-28 14:53:00
6:53 AM,28.9,23.0,78,29.48,10.0,NNE,9.2,-,N/A,,Overcast,20,2012-12-28 15:53:00
7:53 AM,28.9,24.1,82,29.48,10.0,NNE,9.2,-,N/A,,Overcast,20,2012-12-28 16:53:00
8:53 AM,28.9,24.1,82,29.50,10.0,NNE,8.1,-,N/A,,Overcast,30,2012-12-28 17:53:00
9:53 AM,28.9,25.0,85,29.51,10.0,NNE,8.1,-,N/A,,Overcast,30,2012-12-28 18:53:00
10:53 AM,28.0,25.0,88,29.53,10.0,NNE,6.9,-,N/A,,Overcast,30,2012-12-28 19:53:00
11:53 AM,28.0,24.1,85,29.54,10.0,NE,8.1,-,N/A,,Mostly Cloudy,50,2012-12-28 20:53:00
12:53 PM,28.0,24.1,85,29.55,10.0,NNE,5.8,-,N/A,,Overcast,20,2012-12-28 21:53:00
1:53 PM,28.0,25.0,88,29.55,10.0,North,3.5,-,N/A,,Overcast,10,2012-12-28 22:53:00
2:53 PM,28.9,25.0,85,29.55,10.0,North,4.6,-,N/A,,Overcast,10,2012-12-28 23:53:00
3:53 PM,30.0,27.0,88,29.55,10.0,NNE,8.1,-,N/A,,Overcast,30,2012-12-29 00:53:00
4:53 PM,28.9,26.1,89,29.55,10.0,NNE,8.1,-,N/A,,Clear,30,2012-12-29 01:53:00
5:53 PM,30.0,27.0,88,29.54,10.0,NNE,9.2,-,N/A,,Overcast,20,2012-12-29 02:53:00
6:53 PM,30.2,26.6,86,29.50,10.0,NNE,10.4,-,N/A,,Overcast,20,2012-12-29 03:53:00
7:53 PM,30.9,27.0,85,29.48,10.0,NE,10.4,-,N/A,,Partly Cloudy,40,2012-12-29 04:53:00
8:53 PM,32.0,27.0,82,29.47,10.0,NNE,9.2,-,N/A,,Clear,20,2012-12-29 05:53:00
9:53 PM,37.0,28.9,73,29.46,10.0,ENE,10.4,-,N/A,,Clear,60,2012-12-29 06:53:00
10:53 PM,37.0,30.0,76,29.43,10.0,NE,15.0,-,N/A,,Clear,40,2012-12-29 07:53:00
11:32 PM,41.0,30.2,65,29.41,10.0,East,12.7,23.0,N/A,,Clear,100,2012-12-29 08:32:00
11:53 PM,37.0,30.0,76,29.39,10.0,NE,11.5,-,N/A,,Clear,40,2012-12-29 08:53:00